Home   Weather   Jaén   Past weeks

Flag for Spain Past Weather in Jaén, Spain — Yesterday and Last 2 Weeks

Now
59 °F

Passing clouds.


Feels Like: 60 °F
Forecast: 51 / 59 °F
Wind: 3 mph from Southwest

Location: Granada / Aeropuerto

Current Time: Feb 22, 2017 at 8:58:10 pm

Latest Report: Feb 22, 2017 at 8:30 pm


Visibility: 4 mi

Pressure: 29.95 "Hg (28.01 "Hg at 565m altitude)

Humidity: 63%

Dew Point: 46 °F

Location of JaénLocation

Past Weather in Jaén — Graph

°F

Jaén Temperature Yesterday

Maximum temperature yesterday: 68 °F (at 5:00 pm)
Minimum temperature yesterday: 43 °F (at 4:00 am)
Average temperature yesterday: 54 °F

High & Low Weather Summary for the Past Weeks

 TemperatureHumidityPressure
High68 °F (Feb 21, 5:00 pm)100% (Feb 8, 2:30 am)30.42 "Hg (Feb 8, 2:30 am)
Low27 °F (Feb 9, 8:00 am)20% (Feb 9, 3:30 pm)29.45 "Hg (Feb 12, 11:00 pm)
Average49 °F73%30.08 "Hg
* Reported Feb 7 7:00 pm — Feb 22 7:30 pm, Jaén, Weather by CustomWeather, © 2017

Note: Actual official high and low records may vary slightly from our data, if they occured in-between our weather recording intervals... More about our weather records

Advertising

Jaén Weather History for the Previous 24 Hours

Scroll right to see more
 ConditionsComfort  
Time TempWeatherWind HumidityBarometerVisibility
7:30 pm
Wed, Feb 22
63 °FPassing clouds.No wind52%29.92 "Hg4 mi
7:00 pm63 °FPassing clouds.3 mph49%29.92 "Hg4 mi
6:30 pm64 °FPassing clouds.5 mph46%29.92 "Hg4 mi
6:00 pm66 °FPassing clouds.6 mph43%29.92 "Hg4 mi
5:30 pm68 °FPassing clouds.6 mph38%29.92 "Hg4 mi
5:00 pm68 °FPassing clouds.6 mph40%29.92 "Hg4 mi
4:30 pm68 °FPassing clouds.7 mph38%29.95 "Hg4 mi
4:00 pm68 °FPassing clouds.10 mph38%29.95 "Hg5 mi
3:30 pm68 °FClear.10 mph38%29.95 "Hg5 mi
3:00 pm68 °FClear.12 mph35%29.98 "Hg5 mi
2:30 pm66 °FClear.1 mph40%29.98 "Hg6 mi
2:00 pm66 °FSunny.No wind40%30.01 "Hg10 mi
1:30 pm64 °FSunny.2 mph46%30.01 "Hg10 mi
1:00 pm64 °FSunny.1 mph46%30.04 "Hg10 mi
12:30 pm61 °FSunny.1 mph48%30.04 "Hg10 mi
12:00 pm59 °FSunny.2 mph48%30.07 "Hg10 mi
11:30 am57 °FSunny.2 mph48%30.07 "Hg10 mi
11:00 am55 °FSunny.2 mph51%30.07 "Hg10 mi
10:30 am54 °FSunny.2 mph54%30.07 "Hg10 mi
10:00 am52 °FSunny.2 mph58%30.09 "Hg10 mi
9:30 am50 °FSunny.No wind62%30.09 "Hg10 mi
9:00 am46 °FSunny.2 mph76%30.07 "Hg10 mi
8:30 am45 °FSunny.2 mph76%30.07 "Hg10 mi
8:00 am48 °FSunny.1 mph58%30.07 "Hg10 mi
7:30 am48 °FPassing clouds.3 mph58%30.07 "HgN/A
7:00 am48 °FClear.2 mph62%30.07 "Hg10 mi
6:30 am48 °FClear.3 mph62%30.07 "Hg10 mi
6:00 am48 °FClear.2 mph62%30.07 "Hg10 mi
5:30 am48 °FPassing clouds.5 mph62%30.07 "HgN/A
5:00 am48 °FClear.2 mph58%30.07 "Hg10 mi
4:30 am48 °FPassing clouds.No wind66%30.07 "HgN/A
4:00 am50 °FCool.2 mph54%30.07 "HgN/A
3:30 am48 °FCool.5 mph54%30.07 "HgN/A
3:00 am46 °FCool.1 mph66%30.07 "HgN/A
2:30 am46 °FCool.2 mph66%30.09 "HgN/A
2:00 am50 °FCool.2 mph54%30.09 "HgN/A
1:30 am52 °FPassing clouds.1 mph58%30.09 "HgN/A
1:00 am52 °FPassing clouds.2 mph50%30.09 "HgN/A
12:30 am50 °FPassing clouds.3 mph71%30.09 "HgN/A
12:00 am52 °FPartly cloudy.3 mph62%30.09 "HgN/A
11:30 pm
Tue, Feb 21
50 °FPassing clouds.2 mph76%30.09 "HgN/A
11:00 pm54 °FPassing clouds.1 mph54%30.09 "HgN/A
10:30 pm50 °FPassing clouds.1 mph67%30.07 "HgN/A
10:00 pm54 °FClear.2 mph51%30.07 "Hg10 mi
9:30 pm55 °FPassing clouds.6 mph47%30.07 "HgN/A
9:00 pm55 °FPassing clouds.6 mph51%30.07 "HgN/A
8:30 pm57 °FPassing clouds.7 mph48%30.04 "HgN/A
8:00 pm59 °FClear.5 mph48%30.04 "Hg10 mi
Weather by CustomWeather, © 2017

See weather overviewHow to use our weather pages